Location: Hurecourt
(47.9030°N, 6.0653°E)
Time: 04:43:21
(UTC+00:00)

Meteor 1-28 Rocket - Pass Details

Date: 14 July 2020
Orbit: 505 x 522 km, 97.3° (Epoch: 06 August)

Event Time Altitude Azimuth Distance (km) Brightness Sun altitude
Exits shadow 02:31:16 - 170° (S) 2,146 6.0 -10.8°
Reaches altitude 10° 02:32:17 10° 171° (S) 1,719 5.5 -10.7°
Maximum altitude 02:35:59 78° 257° (WSW) 527 3.1 -10.3°
Drops below altitude 10° 02:39:44 10° 345° (NNW) 1,742 6.4 -9.8°
Sets 02:41:51 0° 347° (NNW) 2,636 7.3 -9.6°
